Powrót do katalogu

FREGAT DEB

LostUNKNOWN
NORAD 46399·DEBRIS·🇷🇺 Russia

Wystrzelony Jul 18, 2011 z Baikonur Cosmodrome

Loading…

Następne Przeloty (najbliższe 24 godziny)

TLE

NieaktualneSource: Space-Track

Epoka: Jan 25, 2022, 15:16 UTC

1 46399U 11037LE  22025.63673894 -.00000047  00000-0  10000-4 0  9997
2 46399  50.7011 154.0751 2383353 123.8549 347.2516  9.20314347    11

Śledź FREGAT DEB w czasie rzeczywistym z AllMySat

Download on the App Store